Location: Newark
(43.9494°N, 6.8108°E)
Time: 21:51:11
(UTC+00:00)

A-11 Canister half - Pass Details

Date: 01 November 2019
Orbit: 1514 x 1686 km, 47.2° (Epoch: 11 November)

Event Time Altitude Azimuth Distance (km) Brightness Sun altitude
Rises 03:22:47 0° 291° (WNW) 4,891 - -30.2°
Reaches altitude 10° 03:25:58 10° 291° (WNW) 3,883 - -29.7°
Exits shadow 03:32:44 50° 284° (WNW) 1,980 9.1 -28.4°
Maximum altitude 03:35:52 81° 206° (SSW) 1,617 8.9 -27.9°
Drops below altitude 10° 03:45:22 10° 121° (ESE) 3,736 11.7 -26.2°
Sets 03:48:22 0° 120° (ESE) 4,699 12.4 -25.7°
